Tracking 33485 objects as of 15-Mar-2026
HD Live streaming from Space Station
objects crossing your sky now

STARLINK-36633

Track STARLINK-36633 now!
10-day predictions
STARLINK-36633 is classified as:


NORAD ID: 67632
Int'l Code: 2026-020R
Perigee: 419.9 km
Apogee: 422.3 km
Inclination: 43.0 °
Period: 92.8 minutes
Semi major axis: 6792 km
RCS: Unknown
Launch date: January 30, 2026
Source: United States (US)
Launch site: AIR FORCE EASTERN TEST RANGE (AFETR)
Your satellite tracking list
Your tracking list is empty




NASA's NSSDC Master Catalog

Two Line Element Set (TLE):
1 67632U 26020R   26074.25001157 -.01215712  00000-0 -22468-1 0  9998
2 67632  42.9996 109.2553 0001779 268.6239  99.5483 15.50949093  5963
Source of the keplerian elements: AFSPC